Kindakun Rocks, British Columbia

6:21 AM PDT on July 23, 2017 (GMT -0700)
Kindakun Rocks

Weather History for CWQS - February, 2013

Change the Weather History Date:

Thursday, February 14, 2013

  Actual Average (CYZP) Record (CYZP)
Temperature  
Mean Temperature 43 °F -  
Max Temperature 46 °F 42 °F 51 °F (2015)
Min Temperature 40 °F 34 °F 32 °F (2000)
Degree Days  
Heating Degree Days 22    
Moisture  
Dew Point -    
Average Humidity    
Maximum Humidity    
Minimum Humidity    
Precipitation  
Precipitation 0.08 in - - ()
Sea Level Pressure  
Sea Level Pressure 30.18 in    
Wind  
Wind Speed 18 mph ()    
Max Wind Speed 33 mph    
Max Gust Speed 41 mph    
Averages and records for this station are not official NWS values.
T = Trace of Precipitation, MM = Missing Value Source: Averaged Metar Reports

Daily Weather History Graph

Daily Weather History Graph

Search for Another Location

Airport or City:

Trip Planner

Search our weather history database for the weather conditions in past years. The results will help you decide how hot, cold, wet, or windy it might be!

Date:

Astronomy

Feb. 14, 2013 Rise Set
Actual Time 8:10 AM PST 6:00 PM PST
Civil Twilight 7:34 AM PST 6:37 PM PST
Nautical Twilight 6:53 AM PST 7:17 PM PST
Astronomical Twilight 6:13 AM PST 7:58 PM PST
Moon 9:28 AM PST (2/14) No Moon Set
Length of Visible Light 11h 03m
Length of Day
9h 50m
Waxing Crescent, 22% of the Moon is Illuminated
Feb 14
Waxing Crescent
Feb 17
First Quarter
Feb 25
Full
Mar 4
Last Quarter
Mar 11
New

Hourly Weather History & Observations

Time (PST) Temp. Windchill Dew Point Humidity Pressure Visibility Wind Dir Wind Speed Gust Speed Precip Events Conditions
12:00 AM 45.0 °F 38.9 °F - N/A% 30.12 in - South 12.7 mph - N/A   Unknown
1:00 AM 44 °F - - % 30.13 in - South 16.1 mph - -  
1:00 AM 44.4 °F 37.2 °F - N/A% 30.13 in - South 16.1 mph - N/A   Unknown
2:00 AM 44.6 °F 37.8 °F - N/A% 30.14 in - South 15.0 mph - N/A   Unknown
3:00 AM 44.6 °F 36.9 °F - N/A% 30.14 in - South 18.4 mph - 0.04 in   Unknown
4:00 AM 45 °F - - % 30.15 in - South 15.0 mph - -  
4:00 AM 44.6 °F 37.8 °F - N/A% 30.15 in - South 15.0 mph - 0.03 in   Unknown
5:00 AM 44.8 °F 37.1 °F - N/A% 30.15 in - South 18.4 mph - 0.03 in   Unknown
6:00 AM 44.8 °F 36.9 °F - N/A% 30.15 in - South 19.6 mph - 0.01 in   Unknown
7:00 AM 45 °F - - % 30.17 in - South 18.4 mph - -  
7:00 AM 44.8 °F 37.1 °F - N/A% 30.17 in - South 18.4 mph - 0.01 in   Unknown
8:00 AM 44.8 °F 36.9 °F - N/A% 30.17 in - South 19.6 mph - N/A   Unknown
9:00 AM 44.8 °F 36.4 °F - N/A% 30.17 in - South 21.9 mph - 0.01 in   Unknown
10:00 AM 45 °F - - % 30.19 in - South 18.4 mph - -  
10:00 AM 45.0 °F 37.4 °F - N/A% 30.19 in - South 18.4 mph - N/A   Unknown
11:00 AM 45.0 °F 36.6 °F - N/A% 30.19 in - South 21.9 mph - N/A   Unknown
12:00 PM 45.3 °F 36.7 °F - N/A% 30.21 in - South 24.2 mph - N/A   Unknown
1:00 PM 45 °F - - % 30.23 in - South 25.3 mph - -  
1:00 PM 45.3 °F 36.5 °F - N/A% 30.23 in - South 25.3 mph - N/A   Unknown
2:00 PM 45.5 °F 36.5 °F - N/A% 30.22 in - South 26.5 mph - N/A   Unknown
3:00 PM 45.7 °F 37.1 °F - N/A% 30.21 in - South 24.2 mph - 0.01 in   Unknown
4:00 PM 46 °F - - % 30.20 in - South 26.5 mph - -  
4:00 PM 45.9 °F 37.0 °F - N/A% 30.20 in - South 26.5 mph 32.2 mph 0.02 in   Unknown
5:00 PM 45.7 °F 36.4 °F - N/A% 30.19 in - South 28.8 mph 34.5 mph 0.02 in   Unknown
6:00 PM 45.9 °F 36.8 °F - N/A% 30.18 in - South 27.6 mph 34.5 mph 0.01 in   Unknown
7:00 PM 46 °F - - % 30.19 in - South 29.9 mph - -  
7:00 PM 45.7 °F 36.2 °F - N/A% 30.19 in - South 29.9 mph - 0.01 in   Unknown
8:00 PM 45.7 °F 36.2 °F - N/A% 30.18 in - South 29.9 mph - 0.01 in   Unknown
9:00 PM 45.5 °F 35.6 °F - N/A% 30.17 in - South 32.2 mph 38.0 mph 0.01 in   Unknown
10:00 PM 45 °F - - % 30.17 in - South 31.1 mph - -  
10:00 PM 45.3 °F 35.5 °F - N/A% 30.17 in - South 31.1 mph 36.8 mph N/A   Unknown
11:00 PM 45.5 °F 35.5 °F - N/A% 30.17 in - South 33.4 mph 41.4 mph N/A   Unknown